Powrót do katalogu

STARLINK-5180

AktywnyŁącznośćVLEO
NORAD 55318·PAYLOAD·🇺🇸 United States

Wystrzelony Jan 19, 2023 z Vandenberg Space Force Base

Loading…

Następne Przeloty (najbliższe 24 godziny)

TLE

ŚwieżeSource: CelesTrak SupGP

Epoka: Sep 14, 2026, 20:53 UTC

1 55318C 23010BB  26257.87062500  .00058522  00000+0  49075-2 0  2573
2 55318  70.0004 247.4416 0003539 268.9613 326.4132 14.98275119    17

Śledź STARLINK-5180 w czasie rzeczywistym z AllMySat

Download on the App Store